Wind_Speed
28 34 36 37 41 43 44 46 38 33 33 37 40 42 40 39 36 31 27 23 20 19 18 18 19 20 15 18 23 24 25 27 32 34 34 32 35 36 36 37 39 40 41
25 28 32 35 41 46 48 45 40 31 35 36 39 40 40 35 28 22 19 18 17 16 15 15 14 17 15 23 22 24 27 28 33 38 38 39 40 38 40 41 42 44 46
25 28 32 32 34 36 38 37 34 34 33 33 31 26 17 15 13 13 15 16 10 10 9 13 14 21 21 22 24 27 28 30 32 39 45 44 45 42 44 46 47 49 49
13 14 14 12 7 4 4 6 4 4 6 7 8 10 11 11 12 7 4 5 7 10 13 17 18 19 20 24 25 27 30 35 37 40 45 47 48 48 47 49 52 50 52
8 12 14 14 12 11 12 15 17 16 15 14 13 10 9 7 4 8 9 9 7 10 11 14 18 21 22 26 31 30 32 34 36 40 45 47 50 50 50 50 51 53 55
34 34 31 30 27 26 25 24 21 18 14 13 9 5 2 1 4 8 9 10 12 15 17 18 21 22 22 22 25 26 28 31 36 39 44 47 51 50 50 50 51 52 54
38 32 30 26 23 22 21 17 16 15 11 10 7 7 7 7 8 9 10 11 12 13 15 19 21 21 23 26 27 28 29 29 30 34 40 44 49 47 47 50 50 49 56
31 27 22 22 22 18 14 15 14 12 11 11 10 10 9 11 10 12 15 15 13 14 16 18 20 21 22 25 29 31 33 34 36 38 41 45 45 44 42 46 51 53 58
33 29 26 24 23 21 19 18 17 15 14 13 14 13 12 13 15 15 14 15 16 18 20 22 25 26 28 31 34 37 39 39 40 38 38 41 43 43 42 45 49 46 53
29 27 26 24 23 22 21 21 21 20 19 17 16 17 17 17 19 21 22 22 23 24 25 26 27 29 30 31 32 34 38 38 39 43 44 45 45 45 42 40 43 46 48
29 27 27 27 27 25 23 21 21 19 17 17 17 18 20 21 24 26 27 27 29 29 30 32 32 33 33 33 31 29 31 37 41 42 44 44 42 36 36 38 40 43 45
26 27 27 26 25 23 22 23 22 21 20 21 21 22 23 24 25 27 28 29 31 32 34 35 35 36 36 36 36 36 38 41 43 45 46 47 47 45 44 48 49 47 46
25 27 26 24 23 23 22 23 23 22 23 25 25 25 26 27 28 29 30 31 33 34 35 36 36 38 39 40 41 42 44 45 46 48 47 44 41 48 51 50 48 49 45
25 26 25 24 24 24 25 26 27 29 29 29 29 29 28 29 30 31 33 34 36 37 38 39 40 41 43 45 47 47 46 44 42 39 39 44 46 46 48 45 44 40 39
26 26 27 26 27 27 28 29 28 28 27 27 27 26 27 28 29 29 31 36 38 39 41 43 46 48 49 49 49 47 46 45 42 41 43 42 44 46 47 41 39 38 40
27 28 28 28 28 26 26 25 25 24 24 26 27 28 27 22 28 32 34 39 41 43 45 48 48 48 49 50 51 52 50 49 48 48 48 49 49 48 45 40 38 33 36
28 27 26 26 25 25 25 25 25 26 27 27 27 28 29 30 33 37 40 42 43 45 48 48 48 47 46 46 47 47 48 46 46 46 47 48 46 43 41 39 31 42 34
25 26 26 26 26 26 26 27 26 27 27 26 26 28 31 34 36 39 42 43 45 44 43 41 40 39 40 41 42 43 44 44 43 44 45 44 42 39 40 37 36 36 34
24 25 25 24 25 26 27 28 30 31 33 34 34 33 36 37 39 41 42 44 43 41 39 36 34 35 36 37 38 38 37 38 41 43 44 43 43 37 37 37 37 31 28
24 24 25 26 26 27 29 30 31 32 33 35 37 40 42 43 45 44 41 40 39 37 36 34 33 33 34 34 35 35 36 37 40 42 43 42 37 31 34 30 28 25 22
19 19 20 22 25 27 28 29 29 30 31 33 34 36 38 40 40 40 40 39 36 34 31 30 30 30 31 32 32 32 32 33 37 39 40 36 32 31 27 25 23 19 16
15 18 20 23 24 25 26 26 28 30 32 35 38 38 38 38 39 40 39 37 35 31 28 28 29 29 29 29 29 30 29 31 35 38 37 31 29 26 23 20 17 16 15
16 18 20 23 25 25 25 27 30 33 36 38 39 41 41 41 42 41 39 36 33 30 25 25 27 28 27 26 25 24 25 29 32 36 30 25 24 21 19 17 17 17 18
15 18 21 23 25 26 28 32 34 36 38 40 41 42 43 43 42 39 36 32 30 27 24 24 25 25 25 24 21 18 20 24 30 29 22 19 17 16 17 18 20 20 20
16 20 23 26 29 31 33 36 38 40 42 43 45 45 45 44 41 37 32 28 27 25 22 22 22 22 22 20 16 16 18 23 28 21 16 15 15 16 18 20 24 24 22
18 22 25 28 32 35 37 40 43 45 46 46 47 46 44 41 37 34 30 26 24 22 20 20 19 19 18 15 10 14 18 19 21 15 13 14 15 16 18 20 23 25 25
Wind_Direction
243 238 238 239 243 246 248 247 247 249 239 236 234 232 234 235 233 228 224 222 222 219 223 233 239 241 240 271 275 275 281 283 282 286 288 290 287 287 286 287 287 287 289
238 236 233 239 236 235 238 243 245 243 239 235 232 230 228 225 225 224 219 217 231 238 239 252 252 248 266 272 279 287 285 288 289 291 293 293 290 290 290 288 289 288 289
225 224 226 230 231 230 226 225 220 223 226 222 221 216 202 187 181 204 228 222 234 246 266 263 280 281 279 286 285 290 292 292 292 294 292 292 292 292 293 293 292 291 290
195 201 206 215 228 283 254 232 245 293 247 207 173 156 167 200 188 172 201 257 257 264 286 287 285 291 293 293 290 293 295 292 293 288 290 294 294 297 296 296 295 295 295
99 83 75 79 84 89 92 89 95 101 112 120 128 149 149 144 220 229 228 262 296 291 295 297 291 287 289 289 290 297 295 294 294 293 293 296 296 299 299 300 298 300 297
90 90 90 88 92 96 95 96 96 97 103 108 107 125 178 254 297 305 304 302 304 305 301 289 285 291 302 304 295 293 293 296 297 297 297 296 295 298 299 298 298 298 295
85 85 85 88 87 82 82 88 90 87 85 83 75 50 24 7 349 338 326 322 320 322 323 323 320 313 307 304 299 297 297 296 294 296 293 293 296 298 299 296 293 291 290
86 82 85 87 83 84 83 84 87 83 71 61 56 49 39 30 360 351 350 346 338 335 332 329 326 323 322 319 317 314 311 309 307 306 304 303 302 302 297 295 295 294 293
85 87 86 84 88 89 86 81 78 77 75 61 52 46 35 26 14 7 1 357 355 351 347 344 342 338 336 333 325 322 318 316 314 307 301 298 297 295 294 294 289 286 286
77 78 78 77 76 77 76 73 71 69 68 63 56 48 38 25 15 11 7 1 359 356 354 351 349 348 345 341 336 329 324 324 317 308 305 304 304 304 302 296 293 285 284
78 79 78 75 74 74 75 76 72 69 66 59 50 44 35 29 26 23 21 13 11 7 3 358 356 352 347 342 337 331 322 317 317 314 310 306 304 307 311 305 294 285 281
79 76 73 72 70 68 66 64 62 56 50 48 42 38 34 32 29 24 20 16 10 6 3 357 352 348 342 339 336 334 330 328 327 325 323 320 318 317 308 299 291 289 290
72 71 69 66 64 60 56 53 50 47 44 41 37 33 29 26 23 18 13 10 5 1 357 352 346 344 342 341 341 341 339 339 338 335 331 327 318 313 311 310 307 302 299
64 63 60 56 54 53 52 50 48 46 42 39 35 29 24 20 15 9 5 2 357 354 351 347 347 346 345 345 345 346 346 345 342 335 328 327 328 327 324 325 322 319 311
62 61 60 58 57 56 54 53 48 44 35 30 27 23 17 13 7 2 358 355 352 349 347 345 348 349 349 350 350 349 348 345 343 337 334 330 329 328 328 329 329 326 315
63 66 68 66 63 59 56 53 48 42 33 28 22 17 15 9 0 359 356 353 350 348 347 348 347 347 347 347 346 344 343 341 340 339 337 337 335 332 331 331 337 329 328
67 65 61 58 54 49 43 37 33 30 25 17 13 8 5 1 358 356 352 350 345 342 344 343 342 341 341 342 341 339 338 339 339 339 338 337 336 334 334 333 330 327 326
61 58 52 47 42 36 31 25 20 17 14 11 9 6 2 358 355 352 346 342 338 338 338 337 338 339 339 339 338 338 337 338 338 339 337 337 336 333 333 335 325 325 327
56 51 46 40 35 31 26 20 15 11 8 5 360 358 355 353 352 351 346 343 339 337 335 335 336 336 336 336 337 336 336 337 340 338 337 335 335 331 329 322 327 328 322
46 41 37 31 25 20 15 10 6 4 2 0 358 356 350 348 347 344 342 339 337 335 334 332 334 334 335 335 335 335 338 340 342 342 340 338 336 336 329 332 332 328 326
40 37 30 21 15 12 8 7 5 1 357 353 351 349 347 342 338 338 338 338 335 331 328 327 329 331 333 334 334 336 337 340 344 345 342 343 345 340 339 336 337 339 343
39 32 23 17 12 7 5 2 357 353 350 347 345 343 338 334 334 333 333 332 330 327 326 327 329 332 333 333 336 336 338 342 345 346 340 343 348 350 351 352 357 4 5
32 22 14 9 5 1 357 353 350 347 345 342 339 336 335 333 331 330 329 327 325 323 324 327 329 332 332 335 337 338 342 345 344 342 336 345 351 357 5 10 13 12 9
18 9 5 1 356 353 350 348 346 343 340 337 336 334 333 331 329 327 325 323 322 322 325 330 333 332 334 337 339 343 346 349 347 342 346 357 9 19 24 23 22 22 21
2 359 356 352 350 349 346 343 341 339 337 336 336 334 332 332 330 329 327 323 321 322 326 333 335 334 337 339 341 348 356 355 343 349 6 25 34 39 40 38 37 34 30
353 350 347 345 345 344 342 340 339 338 337 335 334 333 333 334 334 334 333 328 325 327 330 336 339 340 341 343 354 6 15 4 346 7 34 48 51 46 38 33 36 33 30
Height
1429 1432 1435 1437 1439 1440 1440 1442 1441 1449 1452 1456 1460 1463 1464 1465 1466 1467 1468 1473 1475 1476 1478 1479 1478 1477 1477 1480 1482 1482 1481 1478 1472 1469 1468 1468 1463 1462 1460 1456 1454 1450 1447
1428 1430 1432 1434 1435 1435 1434 1437 1438 1443 1449 1452 1455 1457 1456 1456 1459 1464 1467 1474 1474 1475 1474 1474 1473 1473 1475 1478 1477 1476 1475 1474 1468 1461 1459 1458 1455 1453 1450 1445 1442 1439 1435
1423 1425 1428 1430 1431 1430 1428 1429 1432 1436 1441 1443 1446 1450 1455 1458 1462 1466 1468 1469 1471 1472 1471 1470 1470 1473 1472 1473 1471 1469 1468 1467 1464 1456 1449 1448 1443 1443 1438 1433 1429 1425 1422
1421 1424 1425 1427 1429 1434 1433 1431 1432 1438 1441 1444 1449 1453 1458 1463 1459 1461 1464 1465 1467 1467 1467 1470 1469 1470 1467 1466 1464 1462 1460 1458 1455 1449 1442 1435 1432 1431 1427 1422 1415 1413 1406
1424 1428 1432 1431 1432 1438 1437 1436 1438 1439 1445 1451 1452 1456 1459 1457 1461 1460 1460 1461 1464 1466 1464 1465 1466 1466 1463 1461 1458 1455 1452 1449 1445 1441 1432 1427 1422 1420 1417 1412 1403 1399 1390
1428 1433 1436 1437 1441 1443 1443 1439 1444 1448 1451 1452 1455 1458 1460 1458 1458 1461 1460 1461 1461 1461 1461 1461 1461 1459 1456 1453 1452 1449 1446 1441 1437 1431 1424 1418 1413 1412 1408 1403 1395 1388 1376
1438 1443 1445 1446 1451 1451 1449 1453 1454 1456 1458 1457 1460 1460 1461 1460 1459 1458 1460 1460 1460 1459 1457 1455 1453 1453 1449 1447 1443 1440 1437 1434 1431 1426 1416 1412 1404 1404 1400 1392 1387 1379 1368
1447 1450 1457 1456 1452 1456 1458 1460 1463 1461 1461 1462 1464 1462 1462 1460 1460 1459 1459 1458 1458 1456 1455 1453 1451 1449 1444 1441 1436 1431 1428 1423 1420 1415 1409 1400 1396 1392 1390 1384 1375 1367 1357
1456 1460 1462 1460 1459 1461 1466 1466 1465 1462 1464 1465 1464 1463 1461 1460 1461 1460 1459 1457 1456 1454 1453 1451 1448 1444 1440 1436 1429 1424 1420 1415 1410 1406 1400 1395 1389 1384 1382 1376 1367 1361 1345
1468 1467 1467 1466 1466 1468 1469 1470 1468 1467 1466 1467 1467 1466 1464 1464 1463 1459 1458 1457 1455 1453 1451 1448 1445 1439 1436 1432 1426 1419 1411 1406 1400 1393 1388 1381 1377 1370 1368 1365 1358 1350 1342
1474 1473 1473 1473 1473 1474 1475 1473 1471 1473 1473 1472 1470 1468 1467 1466 1464 1462 1459 1456 1454 1451 1447 1444 1440 1435 1431 1427 1421 1416 1410 1401 1392 1383 1375 1369 1365 1360 1356 1352 1347 1340 1331
1481 1479 1478 1478 1479 1480 1478 1477 1476 1475 1477 1474 1473 1470 1469 1467 1465 1462 1459 1457 1454 1449 1446 1443 1437 1431 1426 1420 1415 1408 1401 1392 1383 1373 1364 1358 1351 1346 1341 1336 1332 1326 1322
1486 1483 1483 1484 1484 1483 1480 1479 1477 1480 1478 1476 1474 1472 1470 1467 1464 1462 1459 1456 1453 1450 1445 1439 1433 1427 1421 1413 1406 1397 1389 1380 1372 1365 1359 1352 1346 1338 1328 1320 1313 1308 1305
1491 1489 1488 1488 1488 1486 1484 1484 1483 1482 1480 1478 1476 1474 1471 1468 1465 1461 1457 1453 1449 1445 1440 1434 1426 1419 1410 1403 1394 1388 1382 1375 1369 1362 1355 1347 1337 1328 1319 1312 1303 1297 1292
1495 1494 1493 1494 1494 1492 1491 1489 1488 1486 1484 1482 1480 1477 1472 1469 1467 1462 1457 1451 1445 1438 1432 1424 1414 1404 1396 1391 1384 1379 1373 1368 1362 1356 1347 1338 1328 1319 1311 1306 1299 1292 1287
1502 1503 1503 1501 1499 1499 1498 1495 1493 1490 1488 1485 1483 1478 1475 1472 1465 1460 1454 1448 1440 1432 1423 1413 1406 1399 1392 1386 1379 1372 1368 1364 1357 1349 1341 1331 1321 1313 1306 1300 1295 1291 1285
1508 1509 1507 1505 1503 1501 1499 1497 1495 1492 1489 1486 1483 1478 1474 1471 1464 1456 1450 1443 1437 1429 1419 1410 1404 1398 1392 1381 1376 1373 1366 1360 1353 1345 1338 1328 1320 1314 1306 1299 1294 1289 1282
1513 1511 1509 1508 1506 1503 1499 1498 1497 1493 1490 1488 1484 1478 1472 1467 1460 1453 1446 1439 1433 1428 1420 1412 1405 1399 1391 1382 1376 1370 1364 1357 1349 1343 1336 1329 1321 1315 1307 1300 1295 1288 1281
1516 1514 1512 1511 1509 1505 1501 1498 1494 1490 1485 1480 1477 1474 1468 1463 1456 1450 1444 1437 1430 1422 1416 1410 1405 1398 1390 1382 1376 1371 1366 1358 1350 1343 1334 1327 1320 1313 1306 1300 1293 1286 1280
1516 1515 1513 1511 1508 1504 1501 1497 1494 1489 1484 1481 1476 1469 1464 1457 1450 1447 1443 1435 1427 1419 1412 1407 1400 1394 1388 1380 1375 1368 1361 1354 1348 1341 1333 1325 1318 1311 1305 1297 1291 1284 1279
1520 1519 1516 1514 1509 1505 1503 1498 1495 1491 1486 1484 1478 1471 1464 1457 1452 1444 1436 1429 1422 1416 1410 1403 1397 1391 1384 1378 1372 1366 1360 1354 1347 1339 1332 1324 1316 1309 1302 1296 1290 1285 1281
1523 1521 1519 1515 1512 1508 1504 1500 1496 1492 1487 1480 1473 1467 1461 1455 1447 1439 1431 1424 1417 1411 1405 1398 1392 1387 1381 1375 1369 1363 1357 1351 1345 1338 1331 1323 1316 1309 1303 1298 1293 1289 1285
1525 1523 1519 1515 1511 1507 1503 1499 1494 1488 1482 1475 1468 1461 1454 1447 1439 1431 1423 1416 1410 1404 1399 1394 1388 1382 1377 1372 1367 1361 1355 1350 1344 1337 1331 1324 1318 1312 1306 1302 1298 1293 1288
1523 1520 1517 1514 1510 1506 1501 1495 1490 1484 1477 1470 1463 1455 1447 1439 1431 1423 1416 1409 1403 1398 1393 1388 1383 1378 1373 1368 1363 1359 1355 1350 1344 1338 1331 1325 1320 1316 1311 1307 1303 1298 1292
1523 1520 1516 1512 1508 1502 1496 1490 1484 1477 1469 1462 1453 1446 1438 1430 1422 1414 1407 1402 1396 1391 1387 1383 1379 1374 1369 1365 1362 1358 1354 1349 1345 1339 1333 1328 1324 1321 1317 1313 1309 1303 1297
1522 1518 1514 1508 1503 1497 1490 1483 1476 1468 1460 1453 1445 1437 1429 1420 1413 1406 1400 1395 1390 1386 1382 1379 1375 1371 1367 1363 1360 1358 1354 1352 1346 1340 1336 1332 1329 1326 1323 1319 1314 1309 1303